Tracking 29933 objects as of 2-Dec-2024
HD Live streaming from Space Station
objects crossing your sky now

STARLINK-11263

Track STARLINK-11263 now!
10-day predictions
STARLINK-11263 is classified as:


NORAD ID: 60725
Int'l Code: 2024-152F
Perigee: 366.1 km
Apogee: 367.6 km
Inclination: 53.2 °
Period: 91.7 minutes
Semi major axis: 6737 km
RCS: Unknown
Launch date: August 28, 2024
Source: United States (US)
Launch site: AIR FORCE EASTERN TEST RANGE (AFETR)
Your satellite tracking list
Your tracking list is empty




NASA's NSSDC Master Catalog

Two Line Element Set (TLE):
1 60725U 24152F   24336.74379647  .00000119  00000-0  58402-5 0  9994
2 60725  53.1600 238.4480 0001152  81.8206 278.2942 15.69708008 16128
Source of the keplerian elements: AFSPC